Fremont, MI

6:31 AM EDT on August 19, 2017 (GMT -0400)
Fremont

Weather History for KFFX - July, 2013

Change the Weather History Date:

Thursday, July 11, 2013

  Actual Average (KMKG) Record (KMKG)
Temperature  
Mean Temperature 66 °F -  
Max Temperature 79 °F 80 °F 91 °F (2005)
Min Temperature 53 °F 60 °F 40 °F (1945)
Cooling Degree Days 1    
Growing Degree Days 16 (Base 50)    
Moisture  
Dew Point 54 °F    
Average Humidity 68    
Maximum Humidity 100    
Minimum Humidity 30    
Precipitation  
Precipitation 0.00 in - - ()
Sea Level Pressure  
Sea Level Pressure 30.06 in    
Wind  
Wind Speed 3 mph (NW)    
Max Wind Speed 14 mph    
Max Gust Speed 17 mph    
Visibility 10 miles    
Events      
Averages and records for this station are not official NWS values.
T = Trace of Precipitation, MM = Missing Value Source: NWS Daily Summary

Daily Weather History Graph

Daily Weather History Graph

Search for Another Location

Airport or City:

Trip Planner

Search our weather history database for the weather conditions in past years. The results will help you decide how hot, cold, wet, or windy it might be!

Date:

Astronomy

Jul. 11, 2013 Rise Set
Actual Time 6:13 AM EDT 9:24 PM EDT
Civil Twilight 5:39 AM EDT 9:59 PM EDT
Nautical Twilight 4:54 AM EDT 10:44 PM EDT
Astronomical Twilight 3:59 AM EDT 11:38 PM EDT
Moon 9:39 AM EDT (7/11) 10:56 PM EDT (7/11)
Length of Visible Light 16h 20m
Length of Day
15h 10m
Waxing Crescent, 10% of the Moon is Illuminated
Jul 11
Waxing Crescent
Jul 15
First Quarter
Jul 22
Full
Jul 29
Last Quarter
Aug 6
New

Hourly Weather History & Observations

Time (EDT) Temp. Dew Point Humidity Pressure Visibility Wind Dir Wind Speed Gust Speed Precip Events Conditions
12:14 AM 60.8 °F 59.0 °F 94% 30.00 in 10.0 mi Calm Calm - N/A   Mostly Cloudy
12:35 AM 61.0 °F 59.0 °F 93% 30.00 in 10.0 mi Calm Calm - N/A   Mostly Cloudy
12:55 AM 60.8 °F 58.3 °F 91% 30.00 in 10.0 mi NW 3.5 mph - N/A   Scattered Clouds
1:15 AM 59.9 °F 58.1 °F 94% 30.00 in 10.0 mi Calm Calm - N/A   Scattered Clouds
1:35 AM 59.0 °F 57.4 °F 94% 30.00 in 10.0 mi Calm Calm - N/A   Clear
1:54 AM 59.2 °F 57.7 °F 95% 30.01 in 10.0 mi Calm Calm - N/A   Clear
2:15 AM 57.6 °F 56.7 °F 97% 30.02 in 10.0 mi Calm Calm - N/A   Clear
2:35 AM 57.4 °F 56.7 °F 97% 30.02 in 10.0 mi Calm Calm - N/A   Clear
2:55 AM 56.7 °F 56.3 °F 99% 30.02 in 10.0 mi Calm Calm - N/A   Clear
3:14 AM 57.2 °F 56.7 °F 98% 30.02 in 10.0 mi Calm Calm - N/A   Clear
3:35 AM 56.5 °F 56.1 °F 99% 30.03 in 10.0 mi Calm Calm - N/A   Clear
3:54 AM 55.9 °F 55.8 °F 99% 30.03 in 10.0 mi Calm Calm - N/A   Clear
4:15 AM 56.5 °F 56.5 °F 100% 30.03 in 10.0 mi NW 3.5 mph - N/A   Clear
4:34 AM 56.5 °F 56.3 °F 99% 30.03 in 10.0 mi Calm Calm - N/A   Clear
4:55 AM 56.3 °F 56.3 °F 100% 30.03 in 10.0 mi NW 3.5 mph - N/A   Clear
5:14 AM 55.6 °F 55.6 °F 100% 30.04 in 10.0 mi Calm Calm - N/A   Clear
5:35 AM 55.6 °F 55.6 °F 100% 30.04 in 7.0 mi Calm Calm - N/A   Clear
5:54 AM 54.7 °F 54.7 °F 100% 30.05 in 5.0 mi Calm Calm - N/A   Clear
6:15 AM 54.7 °F 54.7 °F 100% 30.05 in 3.0 mi Calm Calm - N/A   Clear
6:34 AM 53.6 °F 53.6 °F 100% 30.05 in 7.0 mi Calm Calm - N/A   Clear
6:55 AM 54.0 °F 54.0 °F 100% 30.06 in 10.0 mi Calm Calm - N/A   Clear
7:14 AM 55.8 °F 55.4 °F 99% 30.06 in 10.0 mi Calm Calm - N/A   Clear
7:35 AM 57.2 °F 57.0 °F 99% 30.06 in 7.0 mi Calm Calm - N/A   Clear
7:55 AM 58.8 °F 58.6 °F 99% 30.06 in 7.0 mi Calm Calm - N/A   Clear
8:15 AM 62.8 °F 61.2 °F 94% 30.06 in 10.0 mi West 3.5 mph - N/A   Clear
8:35 AM 65.3 °F 60.1 °F 83% 30.07 in 10.0 mi West 5.8 mph - N/A   Clear
8:54 AM 66.7 °F 59.7 °F 78% 30.07 in 10.0 mi West 5.8 mph - N/A   Clear
9:15 AM 68.9 °F 59.2 °F 71% 30.08 in 10.0 mi West 6.9 mph - N/A   Clear
9:34 AM 69.3 °F 57.6 °F 66% 30.08 in 10.0 mi West 8.1 mph - N/A   Clear
9:55 AM 69.6 °F 58.5 °F 68% 30.08 in 10.0 mi WNW 8.1 mph - N/A   Clear
10:14 AM 70.3 °F 58.3 °F 66% 30.08 in 10.0 mi WNW 9.2 mph - N/A   Clear
10:35 AM 71.6 °F 57.4 °F 61% 30.08 in 10.0 mi WNW 12.7 mph - N/A   Clear
10:54 AM 72.7 °F 56.5 °F 57% 30.08 in 10.0 mi West 9.2 mph - N/A   Clear
11:15 AM 73.0 °F 56.5 °F 56% 30.08 in 10.0 mi WNW 9.2 mph - N/A   Clear
11:34 AM 73.4 °F 57.4 °F 57% 30.08 in 10.0 mi West 10.4 mph - N/A   Scattered Clouds
11:55 AM 72.7 °F 56.1 °F 56% 30.08 in 10.0 mi NNW 9.2 mph - N/A   Clear
12:14 PM 74.1 °F 52.9 °F 47% 30.08 in 10.0 mi NW 13.8 mph 17.3 mph N/A   Clear
12:35 PM 74.7 °F 52.7 °F 46% 30.08 in 10.0 mi NNW 9.2 mph - N/A   Clear
12:55 PM 75.4 °F 52.5 °F 45% 30.08 in 10.0 mi NNW 11.5 mph 17.3 mph N/A   Clear
1:14 PM 76.5 °F 52.0 °F 42% 30.08 in 10.0 mi NNW 9.2 mph - N/A   Clear
1:34 PM 76.8 °F 52.0 °F 42% 30.07 in 10.0 mi NW 6.9 mph 16.1 mph N/A   Clear
1:55 PM 76.8 °F 52.3 °F 42% 30.07 in 10.0 mi North 8.1 mph - N/A   Scattered Clouds
2:15 PM 76.8 °F 52.2 °F 42% 30.07 in 10.0 mi NW 11.5 mph 17.3 mph N/A   Scattered Clouds
2:35 PM 77.5 °F 46.2 °F 33% 30.07 in 10.0 mi NNW 9.2 mph - N/A   Scattered Clouds
2:55 PM 78.6 °F 47.1 °F 33% 30.07 in 10.0 mi NW 11.5 mph 17.3 mph N/A   Clear
3:15 PM 78.6 °F 47.8 °F 34% 30.07 in 10.0 mi WNW 8.1 mph - N/A   Clear
3:34 PM 77.9 °F 47.7 °F 34% 30.07 in 10.0 mi NW 5.8 mph - N/A   Scattered Clouds
3:55 PM 78.8 °F 46.0 °F 31% 30.07 in 10.0 mi North 6.9 mph - N/A   Scattered Clouds
4:14 PM 78.8 °F 46.6 °F 32% 30.07 in 10.0 mi North 3.5 mph - N/A   Clear
4:35 PM 79.0 °F 45.9 °F 31% 30.06 in 10.0 mi North 8.1 mph - N/A   Clear
4:54 PM 78.8 °F 44.8 °F 30% 30.06 in 10.0 mi Calm Calm - N/A   Clear
5:15 PM 79.2 °F 45.1 °F 30% 30.06 in 10.0 mi NNW 8.1 mph - N/A   Clear
5:34 PM 79.5 °F 45.5 °F 30% 30.06 in 10.0 mi NNW 5.8 mph - N/A   Clear
5:55 PM 79.3 °F 45.1 °F 30% 30.05 in 10.0 mi NW 5.8 mph - N/A   Clear
6:14 PM 78.4 °F 55.0 °F 44% 30.05 in 10.0 mi West 11.5 mph - N/A   Scattered Clouds
6:35 PM 77.9 °F 54.5 °F 44% 30.05 in 10.0 mi WNW 8.1 mph - N/A   Scattered Clouds
6:54 PM 77.0 °F 55.8 °F 48% 30.06 in 10.0 mi WNW 11.5 mph - N/A   Clear
7:15 PM 76.3 °F 54.9 °F 47% 30.06 in 10.0 mi WNW 10.4 mph - N/A   Clear
7:34 PM 75.6 °F 54.0 °F 47% 30.06 in 10.0 mi WNW 9.2 mph - N/A   Clear
7:55 PM 75.0 °F 54.5 °F 49% 30.06 in 10.0 mi WNW 9.2 mph - N/A   Clear
8:14 PM 74.3 °F 54.0 °F 49% 30.06 in 10.0 mi WNW 8.1 mph - N/A   Clear
8:35 PM 72.9 °F 54.1 °F 52% 30.06 in 10.0 mi WNW 6.9 mph - N/A   Clear
8:55 PM 71.1 °F 54.5 °F 56% 30.06 in 10.0 mi WNW 6.9 mph - N/A   Clear
9:14 PM 69.1 °F 54.5 °F 60% 30.06 in 10.0 mi WNW 4.6 mph - N/A   Clear
9:35 PM 67.3 °F 54.9 °F 64% 30.06 in 10.0 mi NW 4.6 mph - N/A   Clear
9:54 PM 65.7 °F 55.2 °F 69% 30.06 in 10.0 mi NW 3.5 mph - N/A   Clear
10:15 PM 65.3 °F 55.9 °F 72% 30.07 in 10.0 mi Calm Calm - N/A   Clear
10:34 PM 64.6 °F 55.4 °F 72% 30.07 in 10.0 mi Calm Calm - N/A   Clear
10:54 PM 62.8 °F 55.8 °F 78% 30.07 in 10.0 mi Calm Calm - N/A   Clear
11:15 PM 61.0 °F 55.4 °F 82% 30.07 in 10.0 mi Calm Calm - N/A   Clear
11:34 PM 61.7 °F 56.5 °F 83% 30.08 in 10.0 mi Calm Calm - N/A   Clear
11:55 PM 61.2 °F 55.4 °F 81% 30.08 in 10.0 mi Calm Calm - N/A   Clear